Stillwater, OK

1:46 PM CDT on July 26, 2016 (GMT -0500)
Stillwater Municipal

Weather History for KSWO - January, 2014

Change the Weather History Date:

Wednesday, January 22, 2014

  Actual Average Record
Temperature  
Mean Temperature 32 °F -  
Max Temperature 48 °F 46 °F 77 °F (2009)
Min Temperature 17 °F 24 °F 12 °F (2008)
Degree Days  
Heating Degree Days 32    
Moisture  
Dew Point 15 °F    
Average Humidity 50    
Maximum Humidity 81    
Minimum Humidity 30    
Precipitation  
Precipitation 0.00 in - - ()
Sea Level Pressure  
Sea Level Pressure 30.21 in    
Wind  
Wind Speed 5 mph (NNE)    
Max Wind Speed 18 mph    
Max Gust Speed 24 mph    
Visibility 10 miles    
Events      
Averages and records for this station are not official NWS values.
T = Trace of Precipitation, MM = Missing Value Source: NWS Daily Summary

Daily Weather History Graph

Daily Weather History Graph

Search for Another Location

Airport or City:

Trip Planner

Search our weather history database for the weather conditions in past years. The results will help you decide how hot, cold, wet, or windy it might be!

Date:

Astronomy

Jan. 22, 2014 Rise Set
Actual Time 7:35 AM CST 5:44 PM CST
Civil Twilight 7:08 AM CST 6:12 PM CST
Nautical Twilight 6:36 AM CST 6:43 PM CST
Astronomical Twilight 6:06 AM CST 7:13 PM CST
Moon No Moon Rise 10:49 AM CST (1/22)
Length of Visible Light 11h 03m
Length of Day
10h 08m
Waning Gibbous, 65% of the Moon is Illuminated
Jan 22
Waning Gibbous
Jan 23
Last Quarter
Jan 30
New
Feb 6
First Quarter
Feb 14
Full

Hourly Weather History & Observations

Time (CST) Temp. Windchill Dew Point Humidity Pressure Visibility Wind Dir Wind Speed Gust Speed Precip Events Conditions
12:53 AM 21.9 °F - 8.1 °F 55% 30.14 in 10.0 mi Calm Calm - N/A   Clear
1:53 AM 23.0 °F 18.4 °F 8.1 °F 53% 30.12 in 10.0 mi South 3.5 mph - N/A   Clear
2:53 AM 21.0 °F 12.4 °F 9.0 °F 60% 30.13 in 10.0 mi North 6.9 mph - N/A   Clear
3:53 AM 19.9 °F - 10.9 °F 68% 30.12 in 10.0 mi Calm Calm - N/A   Clear
4:53 AM 21.9 °F 14.5 °F 12.0 °F 66% 30.15 in 10.0 mi North 5.8 mph - N/A   Clear
5:53 AM 19.9 °F 14.9 °F 12.0 °F 71% 30.16 in 10.0 mi NNE 3.5 mph - N/A   Clear
6:53 AM 19.0 °F - 10.9 °F 71% 30.19 in 10.0 mi Calm Calm - N/A   Clear
7:53 AM 17.1 °F - 12.0 °F 81% 30.22 in 10.0 mi Calm Calm - N/A   Clear
8:53 AM 27.0 °F - 14.0 °F 58% 30.23 in 10.0 mi Calm Calm - N/A   Clear
9:53 AM 37.0 °F 30.4 °F 17.1 °F 44% 30.26 in 10.0 mi NE 9.2 mph - N/A   Clear
10:53 AM 44.1 °F 40.1 °F 19.9 °F 38% 30.25 in 10.0 mi NE 6.9 mph - N/A   Clear
11:53 AM 46.0 °F 40.6 °F 21.9 °F 39% 30.23 in 10.0 mi NE 11.5 mph - N/A   Clear
12:53 PM 48.0 °F - 21.9 °F 36% 30.19 in 10.0 mi NNE 12.7 mph 19.6 mph N/A   Clear
1:53 PM 48.9 °F - 21.0 °F 33% 30.16 in 10.0 mi NNE 9.2 mph 20.7 mph N/A   Clear
2:53 PM 48.9 °F - 19.0 °F 31% 30.15 in 10.0 mi North 13.8 mph 23.0 mph N/A   Clear
3:53 PM 48.0 °F - 18.0 °F 30% 30.17 in 10.0 mi NNE 12.7 mph 19.6 mph N/A   Clear
4:53 PM 46.0 °F 41.0 °F 16.0 °F 30% 30.18 in 10.0 mi NNE 10.4 mph - N/A   Clear
5:53 PM 41.0 °F 35.8 °F 16.0 °F 36% 30.21 in 10.0 mi NE 8.1 mph - N/A   Clear
6:53 PM 37.0 °F 32.4 °F 16.0 °F 42% 30.23 in 10.0 mi NE 5.8 mph - N/A   Clear
7:53 PM 34.0 °F 28.8 °F 16.0 °F 48% 30.26 in 10.0 mi NE 5.8 mph - N/A   Clear
8:53 PM 32.0 °F 26.4 °F 16.0 °F 52% 30.27 in 10.0 mi NNE 5.8 mph - N/A   Clear
9:53 PM 30.9 °F 25.2 °F 15.1 °F 52% 30.29 in 10.0 mi NNE 5.8 mph - N/A   Clear
10:53 PM 34.0 °F 26.6 °F 15.1 °F 46% 30.32 in 10.0 mi NNE 9.2 mph - N/A   Clear
11:53 PM 30.9 °F 19.1 °F 17.1 °F 57% 30.37 in 10.0 mi NNE 18.4 mph 24.2 mph N/A   Clear